Regional Weather Roundup
Issued by NWS

Home | Current Version | Previous Version | Graphics & Text | Print | Product List | Glossary On
Versions: 1 2 3 4 5 6 7 8 9 10 11 12 13 14 15 16 17 18 19 20 21 22 23 24 25 26 27 28 29 30 31 32 33 34 35 36 37 38 39 40 41 42 43 44 45 46 47 48 49 50
656
ASUS45 KPSR 241510
RWRAZ

ARIZONA HOURLY REGIONAL WEATHER ROUNDUP
NATIONAL WEATHER SERVICE PHOENIX AZ
800 AM MST TUE MAY 24 2016

NOTE: FAIR INDICATES FEW OR NO CLOUDS BELOW 12,000 FEET WITH NO
SIGNIFICANT WEATHER AND/OR OBSTRUCTIONS TO VISIBILITY.

AZZ001>003-036-241600-
NORTHWEST ARIZONA

CITY           SKY/WX    TMP DP  RH WIND       PRES   REMARKS
BULLHEAD CITY  SUNNY     73  36  25 S14       29.82R
KINGMAN        SUNNY     65  36  34 SW15      29.87R
$$

AZZ004>008-015-016-018-241600-
NORTH CENTRAL ARIZONA

CITY           SKY/WX    TMP DP  RH WIND       PRES   REMARKS
GRAND CANYON   SUNNY     54  22  28 SW13G22   30.00R
WILLIAMS       SUNNY     52  21  30 S12G22    30.07S
PRESCOTT       SUNNY     58  34  40 S13G18    29.98R
FLAGSTAFF      SUNNY     49  24  37 SW17G23   30.02R
PAYSON         SUNNY     59  21  23 VRB3      30.03S
PAGE           MOSUNNY   66  25  21 SW5       29.87R
$$

AZZ009>014-017-241600-
NORTHEAST ARIZONA

CITY           SKY/WX    TMP DP  RH WIND       PRES   REMARKS
WINSLOW        SUNNY     61  21  21 VRB5      29.98R
SAINT JOHNS    SUNNY     61  27  27 CALM      30.01S
WINDOW ROCK    SUNNY     59  23  25 S15G21    30.06R
SHOW LOW       SUNNY     55  19  24 S25       30.04S
$$

AZZ023-241600-
GREATER PHOENIX AREA

CITY           SKY/WX    TMP DP  RH WIND       PRES   REMARKS
PHOENIX        SUNNY     73  34  23 SE6       29.87R
BUCKEYE        SUNNY     72  36  26 S6        29.90R
GLENDALE       SUNNY     73  32  21 CALM      29.89R
LUKE AFB       SUNNY     73  35  24 VRB5      29.87R
DEER VALLEY    SUNNY     71  32  23 S5        29.89R
SCOTTSDALE     SUNNY     71  30  21 S6        29.90R
MESA-FALCON    SUNNY    N/A N/A N/A SE6       29.87R
MESA-GATEWAY   SUNNY     70  34  26 SE9       29.90R
CHANDLER       SUNNY     72  36  26 E6        29.89R
$$

AZZ027-028-241600-
SOUTHWEST MARICOPA COUNTY AND PINAL COUNTY

CITY           SKY/WX    TMP DP  RH WIND       PRES   REMARKS
CASA GRANDE    SUNNY     72  32  23 CALM      29.91R
GILA BEND      SUNNY     74  37  25 S8        29.87R
$$

AZZ503-504-507>509-241600-
SOUTHEAST ARIZONA

CITY           SKY/WX    TMP DP  RH WIND       PRES   REMARKS
TUCSON         SUNNY     72  25  17 VRB3      29.95R
DAVIS-MONTHAN  SUNNY     73  26  17 S3        29.94R
RYAN FIELD     SUNNY     70  27  19 N3        29.94S
NOGALES        SUNNY     70  31  23 S12       30.00R
SIERRA VISTA   SUNNY     69  17  13 S8        30.03R
DOUGLAS        SUNNY     68  30  24 S10       30.03R
SAFFORD        SUNNY     73  24  16 CALM      29.94R
$$

AZZ020-021-025-026-031-241600-
SOUTHWEST ARIZONA

CITY           SKY/WX    TMP DP  RH WIND       PRES   REMARKS
YUMA           SUNNY     66  41  40 NW16      29.88R
$$

CAZ031-033-041-043-047-048-061-241600-
SOUTHERN CALIFORNIA

CITY           SKY/WX    TMP DP  RH WIND       PRES   REMARKS
DOWNTOWN L.A.  PTSUNNY   63  51  65 CALM      29.96R
L.A. AIRPORT   PTSUNNY   62  51  67 CALM      29.96R
SAN DIEGO      MOSUNNY   65  46  50 NW6       30.01R
BURBANK        CLOUDY    58  49  72 SE3       29.96R
ONTARIO        CLOUDY    58  48  69 W7        29.96R
RIVERSIDE      PTSUNNY   59  47  64 CALM      29.96R
PALM SPRINGS   MOSUNNY   68  41  37 NW6       29.87R
EL CENTRO NAS  MOSUNNY   68  41  37 W28       29.90R
IMPERIAL       SUNNY     67  44  43 W23       29.87R
BLYTHE         SUNNY     69  45  41 SW7       29.84R
NEEDLES        SUNNY     75  38  26 SW8       29.81R
$$

NVZ020-UTZ003-241600-
SOUTHERN NEVADA-UTAH

CITY           SKY/WX    TMP DP  RH WIND       PRES   REMARKS
LAS VEGAS      MOSUNNY   66  36  32 SW15G23   29.76R
SALT LAKE CITY PTSUNNY   62  38  40 SE10      29.80S
$$

NMZ009-TXZ055-241600-
NEW MEXICO-WEST TEXAS

CITY           SKY/WX    TMP DP  RH WIND       PRES   REMARKS
ALBUQUERQUE    SUNNY     66  23  19 VRB3      30.03R
EL PASO        MOSUNNY   77  26  15 W7        30.00R
$$


........................KEY........................
SKY/WX - SKY CONDITION/WEATHER
TMP    - TEMPERATURE IN FAHRENHEIT
DP     - DEW POINT IN FAHRENHEIT
RH     - RELATIVE HUMIDITY IN PERCENT
WIND   - DIRECTION AND SPEED IN MILES PER HOUR (MPH)
VRB    - VARIABLE WIND DIRECTION
PRES   - MEAN SEA LEVEL PRESSURE IN INCHES OF MERCURY
         F - FALLING PRESSURE   R - RISING PRESSURE
         S - STEADY PRESSURE
VSB    - VISIBILITY IN MILES
HX     - HEAT INDEX IN FAHRENHEIT
WCI    - WIND CHILL INDEX IN FAHRENHEIT
TC     - TEMPERATURE IN CELSIUS WHICH IS ALSO KNOWN AS
         TEMPERATURE IN CENTIGRADE
AFB    - AIR FORCE BASE
         LUKE AFB IS LUKE AIR FORCE BASE
         DAVIS-MONTHAN IS DAVIS-MONTHAN AIR FORCE BASE
NAS    - NAVAL AIR STATION
         EL CENTRO NAS IS EL CENTRO NAVAL AIR STATION
N/A    - NOT AVAILABLE





USA.gov is the U.S. government's official web portal to all federal, state and local government web resources and services.